Overview Statistics Trail Chart Weather Telemetry Raw packets
 

This is the latest recevied weather packets stored in our database for station/object KC9DRE. If no packets are shown the sender has not sent any weather packets the latest 10 day(s).

<< 83 84 85 86 87 88 89 >>
Time Temp. Humidity Pressure Rain* Wind** Luminosity Snow
1777290110 12.78° C 85% 1015.3 hPa 0 mm - 42 W/m² -
1777289808 12.78° C 86% 1015 hPa 0 mm - 36 W/m² -
1777289503 12.78° C 86% 1015.1 hPa 0 mm - 31 W/m² -
1777289201 12.78° C 86% 1015.1 hPa 0 mm - 25 W/m² -
1777288898 12.22° C 86% 1015.1 hPa 0 mm - 20 W/m² -
1777288594 12.22° C 86% 1015.2 hPa 0 mm - 15 W/m² -
1777288291 12.22° C 86% 1015.2 hPa 0 mm - 11 W/m² -
1777287987 12.22° C 86% 1015 hPa 0 mm - 8 W/m² -
1777287684 12.22° C 87% 1015.2 hPa 0 mm - 5 W/m² -
1777287380 12.22° C 87% 1015.1 hPa 0 mm - 3 W/m² -
1777287076 12.22° C 87% 1015.2 hPa 0 mm - 2 W/m² -
1777286773 11.67° C 88% 1015.1 hPa 0 mm - 1 W/m² -
1777286471 12.22° C 87% 1015.2 hPa 0 mm - 1 W/m² -
1777286168 12.22° C 87% 1015.3 hPa 0 mm - 0 W/m² -
1777285865 12.22° C 87% 1015.2 hPa 0 mm - 0 W/m² -
1777285562 12.22° C 87% 1015.7 hPa 0 mm - 0 W/m² -
1777285260 12.22° C 87% 1015.4 hPa 0 mm - 0 W/m² -
1777284957 12.22° C 86% 1015.3 hPa 0 mm - 0 W/m² -
1777284653 12.22° C 86% 1015.4 hPa 0 mm - 0 W/m² -
1777284350 12.22° C 86% 1015.5 hPa 0 mm - 0 W/m² -
1777284047 12.22° C 86% 1015.3 hPa 0 mm - 0 W/m² -
1777283744 12.22° C 86% 1015.4 hPa 0 mm - 0 W/m² -
1777283442 12.22° C 86% 1015.1 hPa 0 mm - 0 W/m² -
1777283141 12.22° C 86% 1015.4 hPa 0 mm - 0 W/m² -
1777282837 12.22° C 86% 1015.5 hPa 0 mm - 0 W/m² -

* Rain latest hour (hover to see other rain measurements)
** Current wind speed in m/s (hover to see current wind gust speed)